Temp_Advection
nan nan nan nan nan nan nan nan nan nan nan nan nan nan nan nan nan nan nan nan nan nan nan nan nan nan nan nan nan nan nan nan nan nan nan nan nan nan nan nan nan nan nan nan nan nan nan
nan -0 -0 -0 -0 -0 -0 -0 -0 -1 -1 -1 -2 -1 -0 -0 -0 -0 -0 -0 0 0 0 -0 0 0 0 -0 -0 -0 0 0 -0 0 0 0 0 0 0 0 0 0 -0 -0 -0 -0 nan
nan -0 -0 -0 -0 -0 -0 -0 -0 -0 -0 -1 -1 -1 -1 -0 -0 -0 -0 -0 0 0 0 0 0 0 -0 -1 -0 0 0 0 0 0 0 -0 -0 0 0 0 -0 -0 -0 -0 -0 -0 nan
nan -0 -0 -0 -0 -0 -0 -0 -0 -0 -0 -0 -1 -1 -1 -0 -0 -0 -0 0 0 0 0 0 0 0 -0 -0 0 0 0 0 0 0 0 -0 0 0 0 0 -0 -0 0 -0 -0 -0 nan
nan -0 -0 -0 -0 -0 -0 -0 -0 -0 0 -0 -0 -1 -2 -1 -0 -0 0 0 0 0 0 0 0 0 -0 -0 -0 -0 0 0 0 0 0 0 0 0 0 0 -0 0 -0 -0 -0 -0 nan
nan 0 -0 -0 -0 -0 0 -0 -0 -0 0 -0 -0 -1 -1 -2 -1 -0 0 1 1 0 0 0 0 -0 -0 -0 0 0 0 0 0 0 0 0 0 0 0 0 -0 0 -0 -0 -0 -0 nan
nan 0 -0 -0 0 -0 -0 0 -0 -0 -0 0 -0 -0 -1 -1 -1 -1 1 0 -1 -0 -0 -0 -0 -0 0 0 0 0 0 0 0 0 0 0 0 -0 -0 -0 0 -0 -0 -0 -0 -0 nan
nan -0 -0 0 0 0 -0 -0 -0 -0 -0 -0 -0 -0 -0 -1 -1 -0 1 -0 -2 -1 -0 -0 0 0 0 0 0 0 0 0 0 0 0 0 -0 -0 0 0 -0 -0 -0 -1 -0 0 nan
nan -0 -0 -0 0 -0 -0 -0 -0 -0 -0 -1 -0 -0 -0 -1 -1 -1 1 -1 0 0 -0 0 1 -0 0 0 -0 -0 0 -0 -0 -0 -0 -0 -0 0 0 0 -0 0 -0 -0 0 -0 nan
nan -0 -0 -0 -0 -0 -0 -0 -0 0 -0 -0 -0 -0 -1 -1 -1 -1 0 0 1 0 -0 -0 0 -0 0 0 -0 0 -0 -0 -0 -0 -0 -0 0 0 0 -0 0 -0 0 0 0 0 nan
nan -0 -0 -0 -0 -0 0 0 -0 -0 -0 -0 -1 -0 -0 -0 -1 -0 0 0 1 1 -0 0 -0 0 0 0 -0 0 0 -0 -0 -0 0 0 0 0 -0 -0 0 -0 0 0 0 0 nan
nan -0 -0 -0 0 -0 -0 -0 -0 -0 0 -0 -0 -1 -1 -0 -1 -0 0 1 1 -0 -0 0 -0 -0 -0 -0 -0 -0 0 0 -0 -0 0 -0 -0 -0 -0 0 0 -0 0 -0 0 0 nan
nan -0 -0 -0 0 -0 -0 -0 -0 -0 0 -0 -0 0 -1 -1 -1 -1 0 0 0 -0 -0 -0 -0 -0 -0 -0 -0 -0 -0 0 0 0 -0 -0 0 -0 0 -0 0 0 -0 -0 0 0 nan
nan -0 -1 0 -0 -0 -0 -0 -0 -0 0 0 -0 -0 -1 -1 -1 1 0 0 0 -0 0 0 -0 -0 0 -0 -0 -0 -0 -0 -0 -0 -0 0 -0 0 0 -0 -0 0 -0 -0 0 -0 nan
nan -0 -0 -0 -0 -0 -0 -0 -0 -0 0 -0 0 -0 -0 -0 0 0 0 -0 -0 -0 0 0 0 -0 0 0 0 -0 -0 -0 -0 -0 -0 -0 -0 0 -0 0 -0 -0 -0 0 0 -0 nan
nan -0 -0 -0 -0 -0 -0 -0 -0 -0 0 0 0 0 0 0 -0 -0 -0 0 -0 -0 -0 -0 0 0 -0 0 0 0 0 -0 0 0 -0 -0 0 -0 -0 0 -0 -0 -0 0 0 -0 nan
nan -0 0 -0 -0 -0 0 -0 -0 -1 -0 0 -0 0 0 0 -0 1 -0 0 0 0 -0 -0 -0 0 0 -0 -0 0 0 -0 0 0 0 -0 0 -0 0 -0 -0 -0 -0 -0 -0 -0 nan
nan -0 -0 -0 0 -0 0 -0 -0 -0 -0 0 -0 -0 -0 -0 -0 0 -0 0 -0 0 0 0 -0 -0 -0 -0 -0 0 0 -0 -0 -0 0 0 -0 0 -0 -0 -0 0 -0 -0 0 -0 nan
nan -0 -0 -0 -0 -0 -0 -0 -0 -0 -0 -0 -0 0 -0 0 0 0 -0 0 0 -0 0 0 -0 -0 -0 -0 -0 0 -0 -0 0 -0 -0 -0 0 0 -0 0 0 0 -0 0 0 0 nan
nan 0 -0 -0 -0 -0 -0 -0 -0 -0 -0 0 -0 0 -0 -0 0 0 -0 0 0 0 -0 0 -0 -0 -0 -0 0 -0 -0 -0 0 -0 -0 -0 0 -0 -1 0 0 -0 0 0 0 -0 nan
nan 0 0 -0 -0 -0 -0 -0 0 -0 -0 -0 -0 -0 0 0 -0 0 0 -0 -0 0 0 0 0 -0 -0 -0 -0 0 -0 -0 -0 0 0 0 0 -0 -0 0 0 -0 -0 0 -0 -0 nan
nan 0 -0 -0 -0 -0 -0 -0 -0 -0 -0 -0 -0 0 -0 -0 0 0 -0 0 0 0 0 0 -0 -0 0 -0 0 -0 -0 -0 -0 -0 0 0 0 0 -0 0 0 -0 -0 -0 -0 -0 nan
nan -0 -0 -0 -0 -0 0 -0 -0 -0 -0 -0 -0 -0 0 -0 -0 -0 -0 -0 -0 0 0 0 -0 0 -0 -0 0 0 0 0 0 -0 0 0 0 -0 -0 0 0 -0 -0 -1 -1 -0 nan
nan -0 -0 -0 -0 0 -0 0 -0 -0 -0 -0 0 -0 -0 0 -0 -0 -0 -0 0 -0 0 -0 0 -0 -0 0 0 0 0 0 0 -0 0 0 -0 -0 -0 -0 -0 -0 -0 -0 -0 -0 nan
nan -0 -0 -0 -0 0 -0 -0 0 -0 -0 -0 0 -0 -0 0 0 -0 -0 -0 0 0 0 0 -0 -0 0 0 0 -0 0 0 0 -0 0 -0 -0 -0 -0 -0 -0 -0 0 -0 -0 -0 nan
nan -0 -0 0 0 -0 0 -0 -0 0 0 -0 0 -0 -0 -0 -0 -0 0 -0 -0 0 0 -0 0 0 0 -0 0 0 0 -0 -0 0 0 0 -0 -0 -0 -0 -0 0 -0 0 -0 0 nan
nan 0 -0 -0 0 -0 -0 -0 -0 0 -0 -0 -0 -0 -0 -0 -0 0 -0 -0 0 -0 -0 0 0 0 0 0 -0 0 -0 0 -0 0 -0 -0 0 -0 -0 -0 -0 -0 0 -0 0 0 nan
nan 1 -0 -0 -0 0 -0 -0 -0 -0 -0 -0 -0 -0 -0 -1 0 0 -0 -0 -0 -0 -0 -0 0 -0 0 -0 -0 0 0 0 -0 -0 0 -0 -0 -0 0 -0 -0 -0 0 0 0 -0 nan
nan nan nan nan nan nan nan nan nan nan nan nan nan nan nan nan nan nan nan nan nan nan nan nan nan nan nan nan nan nan nan nan nan nan nan nan nan nan nan nan nan nan nan nan nan nan nan
Wind_Speed
23 24 25 24 21 23 24 24 23 22 21 21 18 15 19 20 18 16 15 15 11 9 8 7 8 11 9 7 7 4 4 5 10 19 14 10 5 5 4 3 1 3 2 4 5 7 9
24 24 25 26 25 24 24 25 25 25 23 18 21 19 18 19 18 18 14 14 12 9 7 5 7 8 10 5 10 15 7 6 7 15 16 12 5 7 2 3 2 1 4 7 9 10 11
27 26 26 25 27 25 25 24 25 27 26 22 20 20 17 18 19 19 16 12 12 9 8 6 6 7 10 17 11 9 14 9 10 12 12 11 9 5 5 1 0 2 4 7 9 12 7
25 25 27 27 27 27 25 27 27 26 28 26 22 19 22 16 18 19 17 11 10 10 7 7 7 6 7 6 15 13 16 13 12 10 10 8 7 4 3 0 3 1 2 3 3 3 8
26 24 26 27 27 28 27 29 29 28 28 26 25 23 23 17 16 19 26 15 12 12 9 8 8 7 7 6 10 10 16 18 13 8 7 7 6 4 4 3 1 2 4 5 5 5 2
26 24 27 30 31 29 29 29 30 28 28 27 26 24 22 23 17 20 24 20 18 13 10 10 8 4 9 3 5 8 15 12 9 12 8 6 4 3 2 3 5 4 4 5 5 2 3
26 26 26 29 31 32 31 31 32 30 28 27 28 24 20 23 17 23 29 24 14 5 16 11 9 3 4 7 9 7 13 15 11 10 4 4 3 8 11 6 4 0 3 9 9 11 11
30 28 28 29 29 31 28 31 33 30 30 28 28 22 20 19 18 8 36 31 29 7 6 28 10 15 5 9 6 9 12 11 7 4 5 3 9 8 4 5 8 10 14 16 11 8 11
27 28 30 30 33 33 31 32 33 31 29 26 24 20 18 19 17 34 40 35 24 17 4 4 25 17 11 11 5 15 18 9 4 5 7 5 3 2 11 6 10 13 16 14 16 9 13
30 31 32 32 33 33 32 33 33 30 28 24 21 24 19 16 18 29 37 33 21 15 4 4 5 6 17 11 4 16 19 8 2 9 7 9 8 4 4 7 8 14 7 11 13 7 8
32 32 33 33 33 33 32 32 31 29 31 29 23 20 22 14 15 18 30 30 23 14 2 4 5 9 13 16 9 6 23 7 7 5 5 4 4 4 11 6 7 5 4 7 8 8 7
33 33 33 35 33 33 32 31 29 28 29 27 32 32 21 16 19 25 28 37 22 4 6 6 7 7 8 8 4 6 12 6 5 5 5 5 2 4 6 5 9 2 2 4 1 4 9
34 33 34 36 34 33 31 31 30 30 29 33 38 37 24 17 22 25 38 31 4 4 1 8 6 9 9 7 4 7 9 8 4 4 5 3 13 4 4 3 2 7 4 3 5 6 8
33 33 33 35 34 34 31 31 32 32 31 40 52 31 20 19 24 27 43 5 3 5 3 5 9 10 5 8 5 6 10 7 10 2 1 4 5 11 9 15 7 11 9 5 6 5 4
36 33 35 34 34 34 31 30 32 34 37 48 27 7 14 18 22 11 24 4 6 6 9 9 11 5 3 2 2 4 7 6 8 12 5 3 5 2 6 4 9 4 10 11 5 4 3
32 34 35 34 35 32 31 33 31 34 38 39 2 14 11 12 16 21 6 5 1 3 11 9 5 5 9 9 6 8 7 3 6 13 12 1 5 4 1 4 6 7 1 4 5 5 5
35 36 35 33 33 32 33 31 30 32 33 28 7 5 7 10 17 20 2 3 5 7 9 4 4 5 5 7 7 5 4 3 7 5 13 5 5 1 3 10 11 7 6 6 2 4 3
35 35 35 32 32 33 32 32 29 31 30 19 17 2 9 11 5 2 2 5 6 4 2 3 4 5 4 6 4 5 6 5 8 11 10 8 4 6 14 8 14 15 12 15 7 5 5
34 33 33 31 31 32 33 31 29 31 27 30 4 3 15 27 3 3 3 4 4 3 2 2 4 4 3 5 4 6 4 6 13 9 9 7 4 4 6 0 3 8 14 16 13 4 15
33 33 32 32 31 30 32 30 30 30 27 19 3 1 7 9 2 6 5 3 4 5 3 3 4 5 4 4 4 3 4 3 17 10 9 14 5 7 10 8 2 5 14 19 14 7 10
32 32 31 31 32 30 32 29 30 33 29 5 6 2 4 3 2 4 4 4 5 3 2 4 3 3 5 4 6 5 5 3 5 12 8 9 8 11 19 22 15 10 13 18 19 22 12
31 31 31 29 31 30 31 28 26 31 35 10 7 3 4 5 12 7 3 3 5 3 4 4 2 8 7 5 6 4 4 5 5 4 8 5 5 4 15 17 19 18 16 18 20 21 21
31 31 30 29 29 30 32 26 25 29 33 10 12 11 1 9 6 4 3 6 7 6 2 3 5 4 8 10 11 15 14 7 4 5 10 4 3 3 10 3 8 7 16 21 18 18 13
28 30 30 29 28 27 31 26 25 25 26 22 17 9 2 3 6 7 8 5 4 5 2 2 6 3 1 6 4 9 11 13 12 13 12 4 3 3 6 6 3 4 3 12 21 21 21
26 28 28 26 25 26 26 25 24 23 23 24 11 4 5 1 6 7 7 5 4 2 2 1 6 8 12 4 3 1 1 2 7 12 11 14 3 3 3 4 6 2 4 1 8 8 21
27 27 25 25 24 25 25 23 24 20 20 21 10 9 5 2 8 11 4 6 3 3 1 3 7 4 4 2 2 3 3 3 3 2 5 8 4 2 3 4 4 3 4 5 3 2 2
25 25 25 24 24 23 24 24 25 21 19 22 8 13 4 5 3 15 6 7 6 4 1 2 2 3 6 1 1 3 3 2 3 3 4 3 3 4 4 4 6 4 2 3 4 5 8
23 23 22 22 22 23 22 21 22 20 15 19 16 9 9 7 5 10 13 10 7 6 3 3 2 2 2 1 2 2 3 4 2 3 4 6 5 4 2 2 5 2 2 1 2 11 8
21 21 22 23 23 23 22 20 21 20 17 15 19 9 8 5 2 5 9 13 13 8 12 8 1 3 2 3 2 2 3 2 3 3 1 2 5 2 6 5 3 6 8 13 14 12 7
Wind_Direction
357 354 355 350 346 344 341 339 335 316 320 307 309 282 271 270 267 273 292 291 260 251 251 248 229 219 213 205 226 231 230 240 201 203 192 203 185 156 183 197 160 213 270 258 276 288 271
352 351 350 348 346 346 340 337 336 331 327 311 292 318 266 267 262 257 278 284 253 240 234 244 234 219 216 232 252 230 211 185 161 186 203 200 201 209 211 218 176 224 284 279 283 267 266
349 347 345 345 343 344 340 335 332 328 326 317 298 316 308 259 254 246 249 269 245 220 219 234 240 228 230 238 244 221 202 168 169 178 187 199 206 169 166 188 236 275 304 301 241 247 250
346 341 343 342 341 342 337 336 330 326 322 320 305 309 297 253 253 241 235 240 232 204 205 231 233 233 242 244 238 224 200 180 160 157 153 162 175 201 207 221 343 269 233 262 279 233 240
345 343 343 342 337 336 336 335 331 330 322 320 318 300 309 283 247 237 231 211 210 210 207 220 228 227 260 241 237 229 205 203 200 197 167 161 171 171 133 119 359 233 255 231 306 210 251
343 342 342 335 331 329 328 330 330 326 321 316 313 310 295 280 250 235 225 197 192 200 206 222 232 251 231 197 183 191 189 192 185 194 172 172 152 121 149 141 222 198 220 241 222 342 344
329 329 332 330 328 330 330 328 326 320 315 312 312 309 297 285 266 240 201 172 153 170 204 195 200 185 111 144 141 166 184 172 163 162 170 167 164 204 199 194 185 198 253 268 272 291 308
331 335 333 329 328 323 322 321 322 319 312 303 309 302 287 295 251 252 203 178 185 158 176 220 215 214 141 170 136 166 168 162 156 176 150 158 235 216 196 209 225 248 262 269 278 251 273
332 330 331 328 324 322 322 321 321 315 315 310 308 303 296 294 260 230 202 197 194 203 98 201 223 227 204 191 188 184 173 158 136 155 186 194 166 117 191 196 219 241 250 266 270 294 281
330 328 327 327 324 324 322 323 320 323 318 318 310 306 310 290 270 233 202 196 181 172 83 217 186 225 193 158 255 213 188 160 153 191 204 254 248 231 172 207 195 248 203 240 256 267 267
327 329 328 326 325 326 323 323 321 327 316 318 320 305 295 262 259 224 197 175 164 164 61 148 155 148 164 165 140 170 189 159 157 175 150 235 194 170 218 204 174 243 197 217 225 242 276
329 326 327 326 326 328 324 324 324 324 318 314 309 321 305 269 249 228 177 172 150 88 226 152 134 160 146 210 126 118 176 199 168 172 236 224 180 167 193 194 191 130 283 278 230 231 248
326 329 330 328 330 329 325 326 329 323 316 313 302 310 275 269 232 228 174 142 133 169 137 152 166 158 167 160 178 145 173 184 177 168 217 243 231 175 167 169 196 186 174 234 221 207 237
334 333 329 332 333 330 329 331 328 324 318 317 306 305 238 219 203 172 157 130 130 167 158 146 146 134 164 141 200 151 159 199 215 133 146 190 314 196 175 213 182 187 187 216 230 226 235
333 334 335 338 335 333 332 331 330 324 324 320 329 189 191 198 197 193 163 176 170 185 140 137 124 141 166 153 156 153 189 205 200 173 202 187 256 222 208 187 175 176 212 220 273 248 247
343 338 340 339 334 336 336 336 332 330 334 343 117 154 161 190 193 207 184 135 179 129 120 139 127 163 171 178 161 186 185 221 211 180 199 154 275 216 227 174 239 196 27 188 193 234 234
338 340 341 339 337 339 337 340 334 335 340 347 350 145 197 169 196 159 197 162 119 134 122 125 113 132 152 159 172 188 207 270 200 181 181 148 213 188 135 211 191 194 210 211 270 225 229
340 342 343 342 342 341 343 345 338 340 346 346 326 200 162 174 122 122 179 145 110 129 83 108 102 97 121 139 153 194 221 234 189 139 177 202 219 244 232 212 211 212 215 218 230 218 230
343 344 345 343 345 342 347 343 342 346 350 334 255 129 155 154 122 102 268 67 86 109 142 119 92 97 128 150 167 205 197 237 170 167 173 164 223 286 297 343 200 219 218 219 231 254 241
346 346 345 344 345 347 347 345 344 345 346 323 218 146 113 161 27 134 147 72 92 54 115 92 100 92 112 159 239 167 224 259 201 197 189 165 214 214 253 253 267 226 221 213 214 224 248
347 345 346 345 346 350 349 345 345 352 355 330 202 59 120 143 205 133 67 102 116 120 81 161 117 159 167 192 191 218 215 259 176 200 195 180 251 243 253 262 249 237 223 215 218 232 217
345 346 347 350 344 346 353 351 350 356 9 24 23 86 91 135 150 111 50 185 147 142 146 165 185 190 185 221 224 207 190 190 211 158 179 201 262 253 274 260 252 239 228 224 216 228 239
347 345 348 350 345 348 352 354 354 1 13 4 360 13 90 156 153 118 187 167 186 132 189 208 203 180 205 233 238 252 255 265 212 167 197 216 238 271 281 287 290 258 238 228 230 228 223
348 344 346 348 345 350 350 358 356 1 7 1 354 344 5 163 161 181 173 185 146 183 121 96 198 210 211 221 251 253 260 251 248 246 222 211 178 247 287 304 248 238 244 225 222 226 217
347 348 344 345 347 349 352 357 355 360 357 357 350 336 336 130 186 190 169 174 189 208 175 193 256 273 260 285 265 265 239 285 243 234 222 213 171 274 283 287 284 231 337 137 185 239 226
349 347 344 344 348 346 349 355 353 358 357 2 40 25 319 289 208 187 174 162 145 168 132 234 252 266 206 220 156 209 230 231 292 278 12 166 167 185 335 303 313 311 341 116 170 319 2
348 348 347 345 346 348 346 352 354 357 359 356 351 3 342 278 217 181 166 173 129 119 137 175 219 202 184 170 249 200 237 210 236 219 171 162 188 222 237 270 286 292 315 299 22 306 339
349 348 348 345 345 344 344 350 344 352 353 350 342 353 357 298 163 202 195 165 138 167 184 161 205 208 132 219 231 199 217 229 270 231 185 174 164 209 166 236 305 119 30 130 263 317 338
349 348 348 346 345 342 342 341 334 343 347 348 341 329 316 257 296 200 205 216 215 220 195 180 254 125 197 266 234 263 215 161 205 270 295 247 193 196 180 221 234 210 246 285 304 300 322
Height
1511 1508 1504 1501 1498 1494 1491 1486 1483 1481 1479 1478 1477 1474 1475 1474 1475 1476 1476 1476 1476 1476 1477 1477 1477 1479 1482 1484 1483 1483 1483 1484 1485 1487 1490 1493 1495 1497 1500 1499 1500 1501 1499 1499 1499 1498 1497
1511 1507 1503 1500 1496 1492 1489 1485 1481 1477 1474 1472 1471 1470 1468 1468 1470 1472 1473 1473 1474 1475 1475 1476 1476 1477 1480 1483 1481 1482 1483 1483 1484 1486 1489 1491 1494 1496 1498 1499 1500 1499 1499 1498 1497 1496 1495
1510 1506 1501 1498 1494 1490 1487 1483 1479 1475 1471 1468 1466 1464 1462 1463 1464 1466 1469 1470 1471 1472 1473 1474 1475 1476 1477 1477 1477 1479 1481 1482 1483 1485 1488 1491 1494 1496 1497 1499 1499 1499 1499 1496 1492 1491 1492
1507 1503 1499 1495 1491 1487 1483 1479 1475 1471 1467 1463 1461 1459 1457 1457 1459 1461 1463 1466 1468 1470 1472 1473 1474 1475 1473 1472 1474 1477 1480 1482 1484 1486 1487 1491 1493 1496 1497 1498 1499 1498 1499 1498 1489 1486 1487
1504 1499 1497 1492 1488 1484 1480 1476 1472 1467 1463 1459 1456 1454 1452 1452 1453 1455 1457 1461 1465 1468 1470 1472 1473 1474 1471 1469 1471 1473 1477 1480 1483 1486 1488 1490 1493 1495 1497 1498 1502 1500 1499 1498 1492 1485 1485
1501 1497 1493 1489 1484 1480 1476 1472 1467 1463 1459 1455 1452 1449 1448 1447 1447 1450 1451 1456 1461 1465 1468 1471 1472 1476 1468 1467 1468 1470 1475 1478 1482 1484 1489 1490 1491 1494 1496 1497 1498 1499 1500 1497 1492 1487 1486
1497 1492 1490 1485 1480 1475 1470 1466 1462 1458 1454 1450 1446 1444 1443 1442 1441 1444 1442 1450 1460 1465 1464 1461 1463 1465 1464 1466 1468 1471 1473 1477 1481 1484 1487 1488 1491 1491 1489 1491 1492 1495 1497 1494 1492 1489 1488
1495 1489 1485 1480 1476 1471 1466 1462 1456 1452 1448 1445 1440 1438 1437 1437 1436 1437 1436 1435 1437 1444 1455 1457 1460 1462 1463 1464 1467 1470 1473 1478 1480 1484 1486 1489 1486 1485 1487 1490 1491 1493 1493 1490 1486 1488 1485
1491 1486 1481 1476 1471 1466 1460 1456 1450 1445 1441 1437 1435 1433 1432 1432 1431 1430 1428 1432 1434 1440 1449 1453 1453 1457 1462 1465 1465 1467 1472 1474 1477 1483 1482 1483 1481 1479 1483 1487 1488 1488 1488 1487 1488 1488 1483
1488 1482 1477 1471 1465 1459 1455 1450 1444 1439 1435 1431 1429 1428 1427 1427 1427 1425 1424 1428 1433 1439 1459 1451 1451 1451 1456 1461 1464 1464 1467 1471 1476 1476 1479 1480 1478 1480 1484 1485 1486 1486 1485 1486 1488 1492 1487
1484 1478 1472 1466 1460 1454 1449 1444 1439 1435 1430 1426 1424 1423 1421 1422 1421 1419 1421 1425 1432 1436 1471 1447 1449 1451 1452 1458 1458 1462 1465 1469 1473 1475 1479 1476 1477 1479 1480 1481 1484 1483 1482 1483 1484 1487 1488
1480 1475 1467 1462 1456 1450 1444 1440 1435 1430 1425 1420 1418 1416 1415 1415 1414 1413 1417 1420 1427 1444 1459 1441 1444 1447 1452 1456 1457 1461 1465 1468 1469 1472 1474 1474 1474 1475 1476 1477 1480 1481 1484 1485 1483 1483 1480
1477 1470 1464 1458 1452 1446 1440 1435 1430 1426 1421 1414 1409 1406 1406 1408 1408 1410 1417 1417 1431 1437 1426 1435 1437 1441 1445 1452 1454 1457 1462 1465 1466 1473 1472 1467 1467 1471 1473 1477 1477 1478 1485 1480 1478 1474 1462
1472 1465 1460 1454 1448 1442 1437 1431 1427 1421 1415 1407 1395 1389 1392 1398 1403 1404 1408 1417 1419 1419 1425 1424 1429 1438 1443 1446 1450 1454 1459 1461 1463 1467 1470 1478 1472 1464 1466 1465 1468 1471 1473 1474 1467 1465 1456
1469 1462 1456 1451 1445 1439 1433 1428 1422 1416 1408 1393 1380 1380 1388 1392 1399 1400 1407 1407 1410 1412 1413 1422 1432 1438 1444 1445 1447 1451 1454 1454 1453 1460 1464 1470 1466 1461 1460 1462 1463 1469 1466 1457 1466 1463 1460
1467 1459 1453 1447 1442 1436 1430 1425 1419 1412 1401 1387 1383 1385 1387 1391 1396 1402 1408 1406 1406 1406 1410 1416 1424 1431 1438 1444 1450 1450 1450 1448 1448 1448 1454 1459 1461 1457 1457 1461 1459 1457 1460 1462 1462 1454 1450
1464 1456 1450 1445 1439 1433 1427 1422 1416 1409 1400 1393 1387 1388 1389 1392 1394 1401 1405 1403 1405 1407 1408 1415 1421 1430 1433 1439 1446 1449 1449 1445 1444 1447 1451 1456 1463 1457 1456 1453 1447 1454 1454 1456 1455 1449 1440
1461 1455 1448 1443 1437 1431 1425 1420 1413 1406 1398 1392 1386 1384 1387 1389 1397 1406 1405 1399 1401 1409 1410 1413 1417 1423 1430 1435 1442 1444 1447 1444 1440 1444 1451 1450 1453 1449 1444 1437 1437 1436 1436 1441 1443 1445 1441
1457 1453 1446 1441 1436 1430 1423 1418 1411 1405 1399 1392 1387 1384 1390 1393 1396 1401 1404 1400 1403 1410 1413 1415 1418 1422 1428 1434 1440 1442 1443 1437 1439 1441 1445 1447 1449 1450 1441 1436 1434 1433 1427 1429 1431 1434 1429
1455 1451 1446 1440 1435 1429 1422 1415 1408 1402 1397 1393 1386 1384 1390 1395 1398 1403 1403 1405 1408 1411 1414 1415 1420 1423 1428 1431 1433 1437 1440 1434 1434 1437 1438 1442 1442 1442 1423 1421 1428 1423 1419 1423 1430 1425 1417
1455 1449 1444 1439 1434 1429 1422 1414 1406 1398 1391 1387 1386 1389 1392 1397 1399 1398 1401 1405 1411 1415 1415 1416 1421 1421 1424 1427 1429 1432 1435 1433 1433 1433 1436 1440 1435 1431 1421 1416 1420 1416 1413 1414 1417 1411 1415
1453 1448 1443 1438 1433 1428 1424 1416 1409 1402 1391 1388 1387 1390 1394 1398 1398 1400 1405 1409 1411 1414 1414 1417 1419 1418 1421 1424 1423 1427 1428 1429 1426 1429 1432 1433 1425 1425 1414 1411 1409 1405 1403 1407 1405 1405 1404
1453 1447 1442 1438 1432 1426 1422 1418 1412 1406 1399 1395 1394 1391 1394 1397 1401 1404 1408 1409 1411 1411 1414 1416 1417 1419 1421 1420 1420 1420 1422 1422 1423 1424 1428 1430 1428 1422 1404 1400 1399 1394 1389 1394 1397 1395 1401
1451 1446 1442 1438 1433 1428 1421 1418 1414 1410 1405 1401 1398 1397 1396 1400 1401 1404 1405 1407 1407 1409 1413 1415 1417 1419 1418 1417 1418 1417 1416 1417 1419 1418 1421 1421 1426 1423 1406 1401 1387 1380 1377 1376 1378 1380 1385
1449 1446 1440 1437 1433 1428 1425 1419 1415 1411 1409 1406 1401 1399 1398 1398 1399 1402 1403 1406 1409 1411 1413 1415 1415 1416 1416 1417 1416 1412 1413 1415 1409 1409 1412 1414 1420 1416 1408 1393 1382 1373 1373 1375 1376 1375 1376
1448 1444 1439 1435 1432 1427 1425 1421 1417 1414 1410 1405 1402 1401 1401 1399 1398 1398 1402 1405 1408 1410 1412 1412 1412 1412 1414 1414 1412 1409 1418 1409 1411 1405 1407 1410 1413 1415 1409 1399 1387 1376 1377 1373 1372 1366 1366
1445 1442 1439 1434 1430 1428 1423 1419 1415 1412 1409 1406 1404 1402 1401 1398 1394 1396 1400 1403 1405 1408 1409 1410 1410 1411 1412 1410 1410 1407 1410 1407 1409 1401 1407 1408 1411 1408 1407 1401 1389 1378 1376 1375 1373 1375 1366
1443 1440 1436 1433 1429 1426 1424 1420 1417 1415 1412 1409 1406 1403 1402 1398 1393 1395 1397 1399 1402 1405 1407 1409 1411 1409 1409 1410 1407 1405 1407 1407 1406 1400 1399 1401 1406 1406 1404 1402 1397 1379 1379 1379 1374 1368 1367
1441 1438 1434 1431 1429 1425 1422 1420 1416 1412 1409 1408 1405 1402 1399 1398 1395 1395 1396 1397 1400 1401 1404 1405 1406 1405 1406 1407 1407 1402 1402 1405 1405 1400 1395 1398 1393 1392 1395 1388 1378 1377 1375 1374 1371 1368 1368